sat.trackr.live / text

‹ back to catalog

STARLINK-35904

NORAD 66627 · 2025-271L

PAYLOAD ACTIVE UNKNOWN

§ Identity

Operator
Country
US
Launch date
2025-11-23
Launch site
AFWTR
Launch vehicle
Mass (kg)
RCS (m²)

Purposes: comms

External: N2YO · Heavens-Above · Gunter

§ Orbital elements

Epoch: 2026-05-25T03:52:22.315296Z

Period
94.11 min
Inclination
53.1580°
Eccentricity
0.0001324
Mean motion
15.30183721 rev/d
Perigee alt
474.4 km
Apogee alt
476.2 km
Semi-major
6,853.4 km
B*
3.5632e-4
RAAN
144.8160°
Arg perigee
88.6371°
Mean anomaly
271.4782°
Rev number
2,923

§ Raw data

STARLINK-359041 66627U 25271L   26145.16136939  .00010203  00000+0  35632-3 0  99972 66627  53.1580 144.8160 0001324  88.6371 271.4782 15.30183721 29236

JSON: /api/v1/satellites/66627 · /tle

For live sub-satellite position, see the globe view (requires WebGL).

§ Visibility from observer

Set your observer location to see the next 7 days of passes ≥ 10°. The values pass through the URL so the page stays shareable.

No JS? Fill the form by hand. The geolocation button needs JavaScript.